Lake Charles, LA

11:08 PM CDT on August 24, 2016 (GMT -0500)
Chennault International

Weather History for KCWF - February, 2013

Change the Weather History Date:

Tuesday, February 5, 2013

  Actual Average Record
Temperature  
Mean Temperature 65 °F -  
Max Temperature 71 °F 61 °F 77 °F (2008)
Min Temperature 59 °F 47 °F 24 °F (2011)
Growing Degree Days 15 (Base 50)    
Moisture  
Dew Point 59 °F    
Average Humidity 91    
Maximum Humidity 96    
Minimum Humidity 73    
Precipitation  
Precipitation 0.04 in - - ()
Sea Level Pressure  
Sea Level Pressure 29.97 in    
Wind  
Wind Speed 3 mph (East)    
Max Wind Speed 6 mph    
Max Gust Speed -    
Visibility 6 miles    
Events Rain    
Averages and records for this station are not official NWS values.
T = Trace of Precipitation, MM = Missing Value Source: NWS Daily Summary

Daily Weather History Graph

Daily Weather History Graph

Search for Another Location

Airport or City:

Trip Planner

Search our weather history database for the weather conditions in past years. The results will help you decide how hot, cold, wet, or windy it might be!

Date:

Astronomy

Feb. 05, 2013 Rise Set
Actual Time 7:00 AM CST 5:53 PM CST
Civil Twilight 6:35 AM CST 6:18 PM CST
Nautical Twilight 6:07 AM CST 6:46 PM CST
Astronomical Twilight 5:38 AM CST 7:14 PM CST
Moon 2:35 AM CST (2/5) 1:19 PM CST (2/5)
Length of Visible Light 11h 42m
Length of Day
10h 52m
Waning Crescent, 26% of the Moon is Illuminated
Feb 5
Waning Crescent
Feb 10
New
Feb 17
First Quarter
Feb 25
Full
Mar 4
Last Quarter

Hourly Weather History & Observations

Time (CST) Temp. Dew Point Humidity Pressure Visibility Wind Dir Wind Speed Gust Speed Precip Events Conditions
12:15 AM 60.8 °F 59.0 °F 94% 29.94 in 3.0 mi East 4.6 mph - N/A   Overcast
12:35 AM 60.3 °F 58.5 °F 94% 29.93 in 3.0 mi East 3.5 mph - 0.01 in   Overcast
12:55 AM 60.1 °F 58.3 °F 94% 29.93 in 5.0 mi Calm Calm - 0.01 in   Overcast
1:15 AM 59.4 °F 57.6 °F 94% 29.94 in 2.5 mi SE 4.6 mph - 0.01 in   Overcast
1:35 AM 59.2 °F 57.4 °F 94% 29.93 in 3.0 mi Calm Calm - 0.01 in   Overcast
1:55 AM 59.0 °F 57.4 °F 94% 29.92 in 2.5 mi ESE 3.5 mph - 0.01 in   Overcast
2:15 AM 59.4 °F 57.7 °F 94% 29.92 in 3.0 mi Calm Calm - N/A   Overcast
2:35 AM 59.5 °F 57.9 °F 94% 29.92 in 2.5 mi ESE 3.5 mph - N/A   Overcast
2:55 AM 59.9 °F 58.1 °F 94% 29.92 in 4.0 mi Calm Calm - N/A   Overcast
3:15 AM 59.9 °F 58.1 °F 94% 29.93 in 4.0 mi Calm Calm - 0.01 in   Overcast
3:35 AM 59.9 °F 58.3 °F 94% 29.93 in 4.0 mi Calm Calm - 0.01 in   Overcast
3:55 AM 59.9 °F 58.3 °F 94% 29.93 in 4.0 mi Calm Calm - 0.01 in   Overcast
4:15 AM 59.9 °F 58.3 °F 94% 29.93 in 3.0 mi Calm Calm - N/A   Overcast
4:35 AM 59.9 °F 58.3 °F 94% 29.93 in 3.0 mi ESE 3.5 mph - N/A   Overcast
4:55 AM 60.3 °F 59.0 °F 96% 29.92 in 4.0 mi ESE 5.8 mph - 0.01 in   Overcast
5:15 AM 60.4 °F 59.0 °F 95% 29.93 in 7.0 mi ESE 5.8 mph - N/A   Overcast
5:35 AM 60.4 °F 59.0 °F 95% 29.93 in 7.0 mi SE 5.8 mph - N/A   Overcast
5:55 AM 60.8 °F 59.2 °F 94% 29.94 in 5.0 mi ESE 4.6 mph - N/A   Overcast
6:00 AM 60.8 °F 59.0 °F 94% 29.94 in 6.0 mi SE 4.6 mph - N/A Rain Light Rain
6:45 AM 60.8 °F 59.0 °F 94% 29.95 in 6.0 mi Calm Calm - N/A Rain Light Rain
7:05 AM 60.8 °F 59.0 °F 94% 29.96 in 2.0 mi Calm Calm - N/A Rain Light Rain
7:58 AM 60.8 °F 57.2 °F 88% 29.98 in 3.0 mi Calm Calm - N/A   Overcast
9:55 AM 64.4 °F 62.6 °F 94% 30.02 in 7.0 mi Calm Calm - N/A   Mostly Cloudy
10:50 AM 68.0 °F 62.6 °F 83% 30.02 in 10.0 mi Calm Calm - N/A   Mostly Cloudy
11:50 AM 69.8 °F 62.6 °F 78% 30.02 in 10.0 mi Calm Calm - N/A   Mostly Cloudy
2:50 PM 71.6 °F 62.6 °F 73% 29.97 in 10.0 mi East 5.8 mph - N/A   Scattered Clouds
3:50 PM 71.6 °F 62.6 °F 73% 29.96 in 10.0 mi East 5.8 mph - N/A   Scattered Clouds
4:50 PM 69.8 °F 62.6 °F 78% 29.96 in 10.0 mi East 5.8 mph - N/A   Scattered Clouds
5:50 PM 66.2 °F 60.8 °F 83% 29.97 in 10.0 mi ESE 4.6 mph - N/A   Scattered Clouds
6:50 PM 64.4 °F 60.8 °F 88% 29.99 in 10.0 mi Variable 4.6 mph - N/A   Scattered Clouds
7:55 PM 62.6 °F 60.8 °F 94% 30.01 in 10.0 mi Variable 4.6 mph - N/A   Clear
8:50 PM 60.8 °F 59.0 °F 94% 30.03 in 10.0 mi Calm Calm - N/A   Scattered Clouds
9:50 PM 60.8 °F 59.0 °F 94% 30.04 in 7.0 mi NE 3.5 mph - N/A   Clear
10:15 PM 59.7 °F 58.1 °F 94% 30.04 in 4.0 mi Calm Calm - N/A   Clear
10:35 PM 60.1 °F 58.3 °F 94% 30.03 in 5.0 mi NE 3.5 mph - N/A   Clear
10:55 PM 59.9 °F 58.1 °F 94% 30.03 in 4.0 mi NE 3.5 mph - N/A   Clear
11:15 PM 60.6 °F 58.6 °F 93% 30.03 in 5.0 mi ENE 3.5 mph - N/A   Clear
11:35 PM 59.4 °F 57.2 °F 93% 30.03 in 5.0 mi East 3.5 mph - N/A   Clear
11:55 PM 59.4 °F 57.4 °F 93% 30.03 in 3.0 mi ENE 3.5 mph - N/A   Clear